TJS-1

Last updated on Wed Sep 09 2026 00:03:01 GMT+0000 (Coordinated Universal Time)

1 40892U 15046A 26251.43377963 -.00000177 00000+0 00000+0 0 9991 2 40892 0.5319 84.1210 0003421 65.7011 148.8080 1.00273546 40404
UTC large
Height (km)
Speed (km/s)
/
Latitude / Longitude
Inclination (degrees)
Orbital Period (minutes)
Azimuth
Elevation
Range (km)
Doppler Factor

Next 0 passes for location: London (51.5072 / 0.1276)

No passes found over London.
TJS-1